Powrót do katalogu

STARLINK-34119

AktywnyŁącznośćVLEO
NORAD 63895·PAYLOAD·🇺🇸 United States

Wystrzelony May 10, 2025 z Cape Canaveral Space Force Station

Loading…

Następne Przeloty (najbliższe 24 godziny)

TLE

ŚwieżeSource: CelesTrak SupGP

Epoka: Sep 15, 2026, 03:52 UTC

1 63895C 25095F   26258.16159722  .00006463  00000+0  23413-3 0  2580
2 63895  43.0006 186.4334 0000869 273.4869  33.7901 15.27572799    15

Śledź STARLINK-34119 w czasie rzeczywistym z AllMySat

Download on the App Store